Theta_e
329 330 330 329 328 329 330 329 327 327 329 330 329 329 328 328 328 329 330 330 330 331 331 331 332 333 333 334 334 333 333 332 332 330 328 328 328 328 328 328 327 326 326 326 326 326 326 326 325 325 324 323 323 323 323 323 323 323 322 322 321 321 321 320 320 320 320 320 320
329 329 329 325 325 327 330 329 328 328 329 331 330 329 329 329 329 329 329 330 330 331 331 331 332 332 333 333 333 333 333 332 331 330 329 328 329 328 328 327 326 326 326 325 325 326 326 326 325 325 324 323 323 323 323 323 323 322 322 321 321 321 321 320 320 320 320 320 320
329 329 330 329 329 330 330 330 330 330 330 331 331 330 330 329 330 329 330 330 331 331 331 331 332 332 333 333 333 333 332 332 331 330 330 329 329 328 328 327 326 325 325 325 325 326 325 326 325 323 323 323 323 322 322 323 323 322 322 321 321 321 321 321 320 320 320 320 320
328 329 330 330 330 330 330 330 330 330 330 331 331 331 330 330 330 330 330 330 331 331 331 331 332 332 332 332 333 333 332 330 330 330 330 329 328 328 327 327 326 325 325 325 325 325 325 325 325 324 323 323 323 322 322 323 322 322 322 322 322 321 321 321 321 321 321 321 320
328 329 330 330 330 330 331 331 330 330 331 332 331 331 330 330 330 330 330 330 330 331 332 332 332 332 332 332 333 333 332 330 327 328 329 329 328 328 328 327 326 325 325 325 325 325 325 325 324 324 324 324 323 323 323 323 323 322 322 322 322 322 321 321 321 321 321 320 320
328 329 330 330 331 331 331 331 331 331 331 332 331 331 330 330 330 330 330 330 331 332 332 330 330 330 331 332 333 332 332 331 329 329 329 328 328 328 327 327 326 326 325 325 325 325 325 324 324 324 323 323 323 324 324 324 323 322 322 322 322 322 321 321 321 321 320 320 319
328 329 330 330 330 330 331 331 331 331 331 331 331 330 330 330 330 330 330 331 331 332 331 328 329 330 331 332 333 332 332 331 330 330 329 328 328 327 327 327 326 326 325 325 325 325 324 324 323 322 321 321 322 323 324 324 323 322 322 322 322 321 321 321 321 321 320 319 319
328 329 329 330 330 330 330 330 331 331 331 331 331 331 330 330 330 330 331 331 332 332 331 330 332 332 332 333 333 332 331 331 330 329 329 328 328 327 327 327 326 325 325 325 325 325 324 324 323 323 322 322 322 323 323 323 323 322 322 322 322 322 321 321 321 321 320 319 319
328 329 329 330 330 330 330 330 331 331 331 331 331 331 331 331 330 330 331 331 331 331 332 332 332 332 333 332 333 332 332 330 329 329 328 328 328 327 327 327 326 326 325 325 325 325 324 323 323 323 323 322 322 323 323 323 322 322 322 322 322 322 322 321 321 320 320 320 319
328 329 329 329 330 330 329 330 330 331 331 331 331 331 330 326 328 330 330 330 330 331 332 333 333 332 332 332 332 332 332 331 329 329 328 327 326 326 327 326 326 325 325 325 325 325 324 323 323 323 323 323 323 322 322 323 322 322 322 322 322 322 322 321 321 320 320 319 319
329 329 329 329 330 329 329 330 330 330 330 331 331 331 330 327 328 330 330 330 330 331 332 333 333 333 333 332 332 332 331 331 330 329 328 327 326 326 326 326 326 325 325 325 325 325 324 323 323 323 323 323 322 322 322 322 322 321 321 321 321 321 321 321 321 320 320 319 319
329 329 329 329 329 329 329 330 329 329 330 331 330 331 331 331 331 330 330 330 331 331 332 332 333 333 333 332 332 331 332 332 331 330 328 327 327 327 327 326 326 325 325 325 325 325 324 323 323 323 323 323 322 322 321 322 321 321 320 320 321 321 321 320 320 320 320 319 319
329 329 329 329 329 329 329 329 329 329 330 330 330 330 330 331 330 330 330 331 330 331 331 332 332 333 333 332 332 332 333 333 331 330 328 328 327 327 326 327 326 326 326 325 325 325 324 324 323 323 322 322 322 321 321 321 321 320 320 320 320 320 320 320 320 320 319 319 319
329 329 329 329 328 329 329 329 329 329 330 330 330 330 330 330 330 330 330 331 331 331 331 331 332 332 332 332 333 333 333 333 332 331 329 328 327 327 326 326 327 326 326 326 326 325 324 324 323 323 323 322 322 322 321 321 321 321 320 320 320 320 320 320 320 319 319 318 318
329 329 329 329 329 329 329 329 329 329 330 330 330 330 330 331 329 328 329 331 331 332 331 332 331 331 331 333 334 334 334 334 333 331 330 329 328 327 327 326 326 326 326 326 326 325 324 324 324 323 323 323 322 322 322 321 321 321 320 320 320 320 320 320 320 319 319 318 318
329 329 329 328 328 328 329 329 329 329 329 330 330 330 330 330 329 329 329 330 331 331 332 332 332 332 332 332 333 334 334 334 332 331 331 330 329 328 327 327 327 327 327 326 326 325 325 324 324 324 324 323 322 322 322 321 321 321 321 321 320 320 320 319 319 319 319 318 318
330 329 329 328 328 328 328 328 329 329 329 329 329 329 330 330 330 328 328 329 330 332 332 332 332 332 332 330 332 333 333 333 332 331 331 330 330 329 328 328 327 327 327 326 326 326 325 325 325 324 324 324 323 322 322 321 321 321 321 321 320 320 320 318 319 319 319 318 318
330 329 329 328 328 328 328 328 328 329 329 329 329 329 330 330 330 329 328 328 330 331 331 332 332 331 331 331 332 333 333 332 331 331 331 330 330 329 329 328 328 327 327 327 326 325 325 325 325 325 324 324 323 323 322 322 321 321 321 320 320 320 320 319 319 319 319 319 318
329 329 328 328 328 328 328 327 328 328 329 329 329 329 329 330 330 330 330 330 330 330 331 331 331 330 330 331 331 331 331 332 332 331 330 330 330 330 329 329 328 327 327 327 326 325 325 325 325 324 324 324 324 323 323 322 322 321 320 320 320 320 320 319 319 319 319 319 318
328 327 327 328 328 328 328 327 328 328 328 329 329 329 329 330 330 330 330 331 330 330 331 331 330 330 330 330 331 331 331 331 332 331 331 330 330 330 330 329 329 328 327 327 326 326 325 325 325 324 324 323 323 323 323 322 322 321 320 320 320 319 319 319 319 319 319 319 319
327 327 327 327 328 328 328 328 328 328 328 328 328 329 329 330 330 330 331 331 331 331 331 330 330 330 330 330 330 330 330 330 331 331 331 330 330 330 330 329 329 329 328 327 326 326 325 325 325 324 324 323 323 322 322 321 321 320 320 320 319 319 319 319 319 319 319 319 319
328 328 327 327 327 328 328 328 328 328 328 328 328 329 329 330 330 331 331 331 331 330 330 330 329 329 329 330 329 330 330 330 331 331 330 330 330 330 330 330 330 329 328 327 327 326 326 325 325 324 324 323 322 322 321 320 320 320 319 319 319 319 319 319 319 319 319 319 319
327 327 327 327 327 327 326 327 328 328 328 328 328 329 329 330 331 331 332 331 330 330 329 329 329 329 329 330 330 330 330 331 331 331 330 330 330 330 330 330 328 328 327 327 327 327 326 326 325 324 323 322 322 321 321 320 319 319 319 318 318 318 318 318 318 318 319 319 319
328 327 327 327 327 327 327 327 327 327 328 328 328 329 329 330 331 330 330 330 330 329 329 329 329 328 329 330 330 330 331 330 330 330 330 330 330 329 329 328 327 327 327 327 325 323 322 323 324 324 322 322 322 321 321 320 320 319 319 318 318 318 318 318 318 318 318 319 319
328 327 327 327 327 327 327 327 327 327 328 328 329 329 329 330 330 330 329 329 329 329 329 328 328 328 329 329 330 330 330 330 329 329 329 329 329 329 328 327 327 327 325 320 309 306 308 312 318 321 322 322 321 321 321 321 320 320 319 318 318 318 318 318 318 318 318 318 318
327 328 327 327 327 327 327 326 327 328 328 329 329 329 329 329 329 329 328 328 328 328 328 328 328 326 326 328 329 329 329 328 328 327 327 328 327 327 327 327 326 326 322 311 301 300 301 303 306 311 317 323 322 321 321 321 320 320 319 318 318 318 318 317 317 318 318 318 318
325 326 326 327 327 326 326 327 327 328 328 328 328 329 330 329 328 327 327 327 327 327 327 327 327 324 323 328 328 328 328 327 327 327 327 327 326 326 326 326 326 325 319 304 299 298 300 300 301 304 311 322 322 321 321 321 320 320 319 319 318 318 318 317 317 317 317 318 318
323 324 325 326 326 327 327 327 327 327 328 327 327 328 328 327 327 326 326 326 326 326 326 327 326 325 326 328 327 327 327 327 327 327 326 326 326 326 326 326 326 320 310 299 298 299 300 300 300 302 306 313 321 322 321 321 320 320 320 319 319 318 318 318 318 317 317 317 318
322 324 325 325 326 326 327 327 327 326 326 327 327 328 327 326 326 325 326 325 325 325 326 326 326 327 327 327 327 327 327 326 326 326 326 326 325 326 326 326 323 311 301 295 298 299 300 300 300 300 302 307 317 321 321 320 318 317 317 316 316 317 319 319 319 318 318 318 318
321 323 324 325 326 327 327 327 327 327 327 327 328 327 326 325 325 325 325 325 325 325 326 326 327 327 327 327 327 326 326 326 325 325 325 325 325 325 323 319 316 305 296 293 297 298 299 299 298 298 298 300 308 313 313 308 306 304 303 302 302 303 304 306 308 311 314 315 317
319 322 325 325 326 326 326 326 327 327 327 327 327 326 325 324 324 325 325 324 325 324 325 327 327 327 327 327 326 326 326 326 326 325 325 325 319 314 309 303 300 297 295 294 296 297 297 297 296 295 295 296 298 298 298 296 295 295 295 295 296 297 298 299 299 300 302 304 307
318 321 324 324 325 325 326 327 327 327 327 327 326 325 324 324 326 327 326 324 325 325 325 326 326 327 326 327 326 326 325 324 323 322 316 307 301 298 298 299 299 297 295 294 295 295 294 294 294 293 293 294 295 296 296 296 295 294 293 293 294 294 295 296 297 297 298 299 300
318 321 323 323 324 324 325 326 326 326 326 326 326 325 325 325 326 326 326 325 326 327 327 327 326 326 325 323 322 319 313 306 302 300 299 300 300 300 299 298 298 296 294 294 294 293 293 293 293 293 292 293 294 294 294 293 292 291 291 290 291 291 291 292 292 293 293 294 294
318 320 322 322 323 323 324 324 325 325 325 326 326 325 325 325 325 324 323 322 322 321 320 320 320 317 312 307 304 303 302 301 302 301 301 300 299 298 297 296 296 294 293 293 293 293 293 292 292 292 291 291 292 292 291 290 290 289 288 288 288 288 289 289 290 290 290 290 291
318 319 321 321 322 322 323 323 324 324 324 325 326 325 322 318 314 311 309 307 306 306 305 304 304 303 303 303 302 301 301 300 300 299 299 298 297 296 295 294 294 293 292 292 292 292 292 292 291 291 291 291 291 290 290 288 288 287 286 286 286 286 287 287 288 288 288 289 288
318 319 320 321 321 322 322 322 323 323 323 324 322 318 313 310 307 306 304 302 302 301 301 301 300 300 300 299 299 299 298 298 298 297 297 297 296 295 294 294 293 292 291 291 292 292 292 291 291 291 291 291 290 290 288 287 286 286 285 285 284 284 285 285 286 286 287 287 287
319 319 320 321 321 321 321 322 322 322 322 319 314 310 308 306 305 304 303 301 301 300 298 298 297 297 296 296 295 295 296 296 296 295 295 295 295 294 293 293 293 292 291 291 291 291 291 291 291 291 291 291 290 289 288 287 286 285 284 284 283 284 284 284 284 285 285 286 286
318 319 320 321 321 321 321 321 321 321 317 312 308 306 305 304 303 302 300 299 298 297 296 295 294 293 293 292 292 292 292 293 293 293 293 293 293 292 292 292 292 291 291 291 291 291 291 291 291 291 291 290 289 288 287 286 285 284 284 283 283 283 283 283 283 283 284 284 285
317 318 319 320 321 321 321 322 321 317 312 307 306 304 303 301 300 299 298 297 296 295 293 292 291 291 290 290 289 289 289 289 290 290 290 290 290 290 290 290 290 290 290 290 290 291 291 291 290 290 290 290 289 288 287 286 284 284 283 283 282 282 282 282 282 282 283 283 284
317 318 319 320 321 322 322 321 317 312 307 305 303 301 300 298 297 296 295 294 293 292 291 290 289 289 289 288 287 287 287 287 287 288 288 288 288 289 289 289 289 289 289 289 290 290 290 290 290 290 290 289 289 288 286 285 284 283 282 282 282 281 281 281 282 282 282 282 283
316 317 318 320 321 321 319 315 310 306 304 302 300 298 297 296 295 294 293 292 291 290 289 288 288 288 287 286 286 285 285 285 285 285 286 286 286 287 287 287 287 287 288 289 289 290 290 290 290 290 289 289 288 287 286 285 283 282 281 281 281 281 280 280 281 281 281 281 281
Wind_Speed
14 12 10 9 8 8 8 7 7 6 6 7 8 9 9 9 9 9 8 8 8 9 9 9 10 10 12 14 14 14 14 14 13 13 13 14 14 15 16 14 14 14 13 12 12 12 11 11 9 8 7 7 8 9 8 7 8 9 10 10 9 10 11 11 11 11 11 10 8
14 13 11 9 8 7 7 7 7 6 6 6 7 8 9 8 8 9 9 9 8 8 8 9 10 12 13 15 15 15 15 15 14 14 14 15 16 16 16 15 15 15 14 14 13 11 10 11 9 8 7 7 8 9 9 8 9 10 11 12 10 9 9 10 10 11 11 10 9
14 14 12 11 10 8 8 7 7 8 8 7 7 8 8 8 8 8 8 9 9 9 8 8 10 12 14 15 15 14 14 15 15 14 14 14 16 16 16 15 15 16 15 14 13 11 10 11 9 8 7 7 8 9 9 9 10 10 11 12 9 8 7 8 9 9 9 8 9
14 14 13 12 12 12 10 8 9 9 9 7 7 8 8 7 7 7 8 9 10 9 9 9 10 12 13 14 15 15 15 15 15 15 14 14 15 16 16 16 15 16 16 15 14 13 12 12 9 7 7 8 9 9 9 9 10 10 10 10 8 7 7 7 7 7 7 7 8
14 13 13 12 13 13 11 10 10 10 9 7 7 7 7 7 7 7 8 9 9 9 9 11 11 11 12 14 16 16 16 16 15 15 14 14 15 16 16 17 16 15 16 16 15 14 13 13 8 7 7 8 8 8 9 10 10 9 8 7 7 7 7 7 7 6 6 6 7
13 13 13 12 13 12 11 10 11 10 9 7 7 8 8 7 7 7 8 8 9 9 10 11 10 11 12 14 15 16 16 16 15 15 15 15 15 15 16 16 16 16 15 15 15 15 14 13 9 7 7 7 7 8 9 10 10 9 8 7 7 7 7 8 7 6 7 7 8
13 13 14 13 14 13 11 11 11 10 9 8 9 10 10 10 9 9 9 8 8 9 9 8 9 10 12 13 14 14 15 15 15 16 16 14 14 15 16 15 17 16 15 15 15 15 14 12 9 7 7 7 7 9 11 10 9 9 9 8 8 7 8 9 7 7 8 11 11
13 14 14 15 14 14 13 13 11 10 8 8 9 11 12 12 12 12 10 9 8 7 7 7 9 11 12 14 14 14 15 15 15 15 15 14 15 16 16 16 16 16 16 15 15 15 13 11 9 8 8 7 7 8 11 12 11 10 10 10 8 8 8 9 8 8 9 12 13
12 13 14 14 14 14 14 14 12 11 9 9 10 11 12 13 13 13 11 9 8 7 7 7 8 11 13 14 15 15 15 15 16 16 15 15 15 16 16 15 15 15 15 14 15 15 14 11 9 8 8 8 8 9 10 12 12 12 11 10 9 9 9 9 10 10 11 13 14
10 12 13 13 13 13 13 13 12 12 11 10 10 10 11 11 12 12 11 9 8 8 8 7 8 9 11 14 15 16 15 15 16 16 16 15 16 16 16 14 15 14 13 13 13 15 15 11 10 9 9 9 9 10 11 12 13 12 11 8 9 10 11 11 11 12 12 12 14
11 12 13 12 13 13 13 13 12 12 11 10 10 10 10 10 11 11 11 10 9 10 10 9 9 9 10 12 14 14 15 14 15 15 16 17 16 16 16 15 15 15 14 13 13 13 13 11 11 11 11 10 11 11 12 13 13 13 12 9 9 10 11 12 12 12 12 13 14
13 14 14 13 14 14 13 13 12 11 11 11 11 11 10 10 11 11 11 11 11 11 12 11 10 10 10 10 11 12 12 13 13 14 15 17 17 17 16 15 15 15 15 14 13 12 11 12 12 13 13 12 11 10 11 13 14 14 13 11 11 11 11 12 12 11 11 12 14
15 15 15 15 15 14 14 13 12 12 12 12 12 12 11 11 12 12 12 12 12 12 11 11 11 11 10 10 10 10 11 11 13 14 14 15 16 16 16 15 15 15 15 14 13 12 12 12 13 14 14 13 11 11 11 14 14 14 14 13 13 12 11 12 12 11 11 12 12
15 15 15 15 15 15 14 14 12 11 12 13 12 12 11 11 12 12 12 12 12 12 11 11 11 11 10 10 10 11 11 11 13 14 15 15 15 16 16 16 15 15 14 13 13 13 13 13 13 14 14 14 13 12 12 13 13 14 14 14 14 14 13 12 12 12 11 12 12
14 14 15 15 15 14 13 13 11 11 12 13 12 12 11 11 11 10 11 12 12 11 10 10 10 11 11 10 10 10 11 12 13 14 15 15 15 16 16 16 16 15 14 13 13 14 14 14 14 14 14 14 13 13 13 13 13 13 13 14 15 15 14 13 12 12 12 12 12
12 13 14 14 14 14 13 12 10 10 11 11 12 11 11 10 10 10 10 11 11 10 10 11 11 11 11 10 9 9 10 12 13 14 14 14 15 15 16 16 15 15 14 14 13 13 13 13 13 13 14 14 13 13 13 13 13 13 13 14 14 14 14 13 12 12 12 12 12
11 12 12 13 14 14 13 12 9 9 10 11 12 12 11 10 10 9 9 10 10 10 11 13 12 12 11 10 9 9 9 11 12 13 13 14 14 15 15 15 15 14 14 13 13 13 13 13 13 13 13 14 13 13 13 13 13 13 13 13 13 13 13 12 12 12 12 12 13
10 10 11 12 13 13 13 12 10 10 10 11 12 12 11 11 10 9 9 10 10 11 13 14 12 12 12 12 11 9 9 9 11 12 12 13 14 15 15 15 14 14 13 13 13 13 13 13 13 13 13 13 13 13 12 12 12 12 12 12 12 12 11 11 11 11 12 12 13
10 10 11 11 12 13 13 12 12 11 11 11 11 11 11 11 11 10 10 10 11 13 14 14 12 12 12 13 12 11 10 10 10 10 11 13 14 15 15 15 15 15 14 13 13 13 14 14 13 13 13 12 12 12 11 11 11 11 11 11 11 11 11 11 11 11 11 12 12
11 11 11 12 12 13 13 13 12 12 11 11 12 12 12 12 11 11 11 11 12 13 14 14 13 12 12 13 13 12 11 9 9 10 10 11 13 14 15 15 15 15 15 14 13 13 13 14 14 13 13 12 12 12 11 10 10 10 10 10 10 10 10 10 11 11 11 11 11
12 12 12 12 13 13 13 13 12 12 12 12 13 13 12 12 12 12 12 12 13 13 14 14 13 13 13 14 14 13 11 8 9 9 9 10 11 12 13 13 14 14 14 14 14 14 14 14 13 13 12 12 12 11 10 9 9 10 10 9 9 9 10 10 10 10 10 10 11
13 12 13 13 13 13 13 13 13 13 13 13 14 13 13 12 12 12 12 12 12 13 13 14 14 14 14 14 14 12 10 8 8 9 9 10 10 11 11 11 11 11 12 13 13 13 13 13 13 12 11 10 11 10 9 9 9 9 9 9 9 9 9 9 9 10 10 10 11
14 13 13 12 13 12 12 12 13 14 14 15 15 14 13 13 13 13 12 13 12 13 13 13 13 14 15 15 14 12 10 8 8 9 9 9 10 10 10 9 9 9 10 10 11 12 12 11 11 11 10 9 10 9 9 9 8 8 8 9 9 9 9 9 9 10 10 10 10
14 13 12 11 12 13 13 13 14 14 15 15 15 15 15 14 14 14 14 15 14 14 14 12 12 13 15 15 14 12 10 9 8 8 9 9 9 9 9 7 7 8 8 7 8 9 9 9 9 9 9 8 8 8 8 8 8 8 8 8 8 9 9 9 10 10 10 10 9
12 12 11 11 13 13 14 14 15 15 15 16 16 16 15 14 14 14 15 17 16 16 15 14 13 13 13 13 12 11 10 8 8 9 9 9 9 8 7 6 6 6 6 6 8 9 9 8 8 8 8 7 7 7 7 7 7 7 7 8 8 8 8 9 10 11 11 11 10
12 10 10 12 13 14 15 15 16 16 16 16 16 15 15 14 14 15 17 18 17 17 16 15 14 12 10 10 11 10 9 8 8 9 8 8 9 9 7 6 6 5 5 6 9 10 10 9 8 8 7 7 7 6 6 6 7 7 7 8 8 8 8 9 10 11 11 11 10
15 12 9 11 13 15 16 16 16 16 16 15 16 15 15 14 14 16 17 17 17 17 16 15 13 10 9 10 11 10 9 8 8 8 8 8 9 9 8 6 5 5 6 8 11 12 12 11 10 9 8 7 7 6 6 6 7 8 8 8 8 8 9 9 9 10 11 10 11
16 15 14 15 15 15 16 16 16 16 15 16 17 15 14 14 16 17 17 16 16 15 15 13 11 8 7 8 9 9 9 8 8 8 8 8 8 8 7 6 5 5 7 10 12 13 13 12 11 10 9 7 7 6 6 6 6 6 6 6 7 8 9 10 9 9 10 11 11
18 18 18 18 16 15 14 15 15 15 16 17 17 16 15 16 17 17 17 16 15 14 12 10 8 7 7 7 8 8 8 8 8 8 8 8 8 7 7 7 6 6 7 11 13 13 13 12 11 9 8 6 5 4 3 2 2 2 2 2 2 1 1 1 2 4 7 9 10
18 19 19 18 15 13 13 14 15 16 16 17 16 16 16 17 17 17 17 16 15 13 11 9 8 9 9 9 8 8 8 8 8 8 9 10 8 6 4 5 5 5 5 8 11 12 12 12 11 11 10 9 8 8 9 9 9 9 9 8 9 10 11 11 9 7 4 2 2
19 20 19 15 12 12 12 14 15 15 15 15 15 16 17 18 18 17 16 15 13 12 11 11 11 12 11 10 8 8 8 8 8 8 8 8 8 9 10 10 8 6 7 12 14 16 17 18 19 20 20 18 14 12 11 11 11 10 10 10 11 12 12 11 11 12 12 10 7
19 20 18 13 9 10 12 14 14 14 14 14 15 16 18 18 17 15 13 13 13 13 13 13 13 12 11 10 9 7 6 6 7 9 12 14 14 13 12 10 9 9 12 18 21 22 23 24 24 24 23 20 16 14 13 12 12 12 12 13 14 14 13 11 11 12 13 13 11
18 19 17 13 10 10 11 13 13 13 13 14 15 17 17 15 14 12 12 12 12 13 13 12 12 11 9 8 9 12 14 15 15 15 15 14 14 14 14 12 11 11 14 21 24 25 25 25 25 25 23 21 17 16 15 14 12 12 13 14 14 15 15 15 14 14 14 14 13
17 18 17 14 12 12 12 13 12 13 13 15 15 14 12 10 9 9 9 10 11 12 12 12 12 14 15 16 16 15 15 13 14 15 16 16 17 17 16 13 10 11 15 21 24 26 26 26 26 25 24 21 17 16 16 16 14 14 14 15 15 15 16 16 16 15 15 14 13
16 17 16 15 14 14 13 12 12 13 13 14 12 10 10 12 13 13 14 15 17 18 18 18 17 17 17 16 16 16 16 16 16 17 17 17 18 18 18 15 13 13 15 19 23 25 26 26 26 25 23 19 16 15 16 17 16 16 17 17 17 17 17 17 16 15 15 14 14
14 15 16 15 16 15 14 13 13 13 12 11 10 12 14 15 15 15 16 18 20 20 20 18 18 18 18 17 16 16 16 17 18 17 17 17 18 19 18 17 15 14 15 17 20 23 24 25 25 24 21 17 15 14 14 15 15 16 17 18 18 18 18 17 16 15 15 14 14
13 15 16 16 16 16 15 14 14 12 10 10 13 16 17 17 16 16 17 19 20 20 19 18 18 18 18 18 17 17 17 17 18 17 17 16 17 18 18 17 15 14 14 16 18 20 21 22 22 22 20 17 14 14 13 13 13 14 16 17 17 17 16 15 16 16 16 16 15
11 14 16 17 16 16 16 15 14 11 11 15 16 17 17 17 16 16 16 18 19 20 19 18 18 18 18 19 19 19 19 18 18 18 17 16 16 17 18 18 16 15 14 16 17 18 19 20 20 20 18 16 15 14 13 12 13 13 14 15 15 15 15 13 13 15 17 20 20
10 13 16 18 17 16 16 15 13 13 15 18 18 18 18 17 16 16 16 18 19 19 19 19 18 18 19 20 20 20 21 20 19 18 18 17 17 17 18 18 17 16 16 17 18 19 19 20 20 19 18 16 14 13 12 12 13 14 14 13 13 14 14 13 13 13 16 21 24
8 12 16 19 18 16 15 13 13 16 18 19 19 19 19 18 17 17 18 18 19 19 19 19 19 18 18 20 21 21 21 20 19 19 18 18 18 18 18 18 17 17 17 19 19 19 19 19 19 19 18 15 13 12 11 12 13 14 13 12 12 12 12 12 12 12 14 17 21
9 11 15 19 18 14 11 13 17 18 19 20 20 19 18 18 18 18 18 18 18 18 17 17 19 19 19 20 20 20 21 20 19 19 18 18 18 18 18 18 18 18 18 19 20 21 20 20 20 19 17 14 12 11 11 11 13 14 14 12 12 11 11 12 12 12 13 14 15
Wind_Direction
197 195 194 193 194 197 200 203 205 203 195 184 181 180 179 179 179 181 184 188 188 187 186 187 187 188 188 183 181 182 183 183 178 174 172 175 179 179 179 180 177 175 173 173 170 170 171 171 170 169 171 175 178 180 181 180 178 178 179 181 182 184 184 185 185 183 180 178 178
196 194 192 189 189 192 197 201 204 204 198 185 180 178 178 178 179 180 183 188 188 187 185 185 186 188 188 183 182 182 183 183 180 175 173 175 180 181 180 180 178 176 174 173 171 171 172 173 173 172 171 173 176 179 181 182 179 179 181 183 183 183 184 185 186 184 182 180 181
195 193 190 188 188 190 194 198 203 204 200 187 178 175 175 177 177 179 182 187 188 186 184 182 185 187 186 183 181 182 184 184 182 178 175 176 181 182 182 181 180 177 175 175 173 173 175 175 175 174 172 172 176 179 181 181 180 180 181 183 183 182 182 184 185 183 182 182 185
194 192 190 188 188 190 192 196 200 202 199 186 177 173 172 174 176 178 180 184 188 188 186 183 183 184 184 182 180 181 183 183 182 180 177 177 181 183 183 182 180 178 176 175 174 175 177 176 176 175 174 174 177 178 179 178 179 180 182 182 181 181 181 181 181 181 182 184 188
194 191 189 187 188 189 191 194 198 200 197 184 175 171 171 171 174 177 180 182 186 188 187 184 182 183 183 180 178 178 180 180 181 180 180 179 181 183 184 182 180 179 178 176 175 176 177 177 176 177 178 177 178 179 178 175 176 177 179 180 181 182 181 180 180 180 182 185 189
193 190 188 186 186 187 189 193 197 197 195 185 177 173 170 170 173 177 180 181 184 186 187 185 182 182 181 176 174 175 177 178 179 180 180 179 180 182 183 182 180 180 179 176 175 176 177 177 177 178 179 180 182 181 178 175 174 176 178 179 182 183 183 183 182 182 183 186 187
192 189 187 185 185 186 188 191 194 195 193 187 179 174 171 171 173 176 179 178 180 182 184 185 182 182 179 173 171 172 175 176 178 179 179 177 178 180 181 182 181 180 179 177 174 175 176 177 178 179 179 180 183 183 181 179 177 177 178 181 183 184 184 185 183 182 184 186 187
191 188 187 186 185 186 188 189 192 193 192 188 180 174 171 171 173 175 176 176 175 177 180 184 184 184 180 173 170 171 174 174 176 177 178 176 177 179 181 181 181 181 179 177 174 175 176 177 179 180 180 180 183 184 183 182 181 181 181 182 183 185 186 186 183 183 185 187 187
190 187 186 184 185 186 187 189 190 191 191 190 182 175 171 170 172 174 175 176 174 173 175 182 186 186 182 175 171 171 173 174 175 176 177 176 178 179 181 181 181 180 179 177 176 175 176 178 181 182 181 181 183 183 182 182 183 183 183 182 181 183 186 187 186 185 186 188 189
188 184 183 183 183 185 187 189 190 190 190 189 183 174 169 168 171 173 175 174 171 171 173 180 185 187 185 179 174 173 174 174 176 176 177 177 179 181 182 182 181 180 179 178 177 176 177 179 182 183 183 181 182 182 182 181 183 184 185 185 181 181 183 187 187 188 188 190 192
191 183 182 182 182 184 186 189 190 190 188 186 181 174 167 166 171 174 174 172 170 172 175 179 184 188 188 184 179 176 175 174 175 176 178 178 180 182 184 185 182 180 179 178 178 178 178 181 182 182 182 181 182 182 182 182 184 186 188 188 185 183 183 185 187 189 190 192 194
197 186 182 182 182 184 186 188 190 189 186 183 180 173 169 171 175 175 173 170 170 173 177 178 183 187 189 188 182 178 174 171 171 173 176 178 179 182 185 187 184 181 179 179 179 179 180 181 180 180 180 180 181 182 183 183 186 188 190 192 190 188 186 186 188 189 191 193 195
197 186 182 182 183 184 185 187 188 187 185 182 179 175 172 175 177 176 172 169 170 173 177 179 183 188 190 189 184 178 172 168 167 169 173 176 177 180 184 188 186 183 179 179 180 180 181 180 179 178 178 180 182 183 184 184 187 189 191 193 195 195 193 190 189 189 190 191 194
194 184 181 181 182 183 185 187 187 186 184 182 180 176 174 176 178 176 171 168 169 171 173 178 184 189 191 190 184 178 171 167 166 169 171 174 175 178 183 188 187 184 179 178 179 180 180 179 178 178 178 180 182 183 184 186 188 190 192 194 197 198 197 194 191 188 188 189 192
194 184 180 179 180 181 183 186 187 186 184 182 179 176 174 176 178 176 172 167 166 167 170 177 186 190 191 189 183 176 171 168 168 169 170 171 173 178 182 187 186 183 179 176 176 177 178 179 179 179 180 181 182 183 185 186 189 191 193 195 197 199 198 196 192 189 187 188 190
199 187 180 177 178 179 181 185 186 186 184 181 179 176 174 176 178 177 173 166 163 163 170 181 186 189 188 184 178 174 171 171 170 170 169 169 172 176 181 184 184 181 177 173 172 174 177 179 180 181 182 183 183 184 185 187 190 192 194 196 198 198 197 195 192 190 190 190 192
204 189 180 176 176 177 179 182 184 184 183 179 179 177 175 175 176 176 172 165 161 165 173 181 184 184 183 180 174 172 172 174 173 172 170 168 170 174 178 180 180 177 174 170 170 173 177 180 182 183 184 185 185 185 186 188 191 193 194 195 196 196 195 193 192 192 193 194 196
210 191 180 176 174 175 176 180 182 183 182 180 182 181 177 174 174 173 169 163 164 170 176 179 179 180 181 180 177 175 173 173 175 175 173 171 171 172 174 176 176 175 173 172 172 175 177 180 182 184 185 186 186 187 187 188 190 192 193 194 195 194 193 192 192 194 196 198 198
218 195 182 176 173 173 174 177 181 182 182 181 185 183 179 173 171 169 166 166 171 174 176 174 175 177 180 181 180 178 174 171 174 177 179 177 175 174 173 173 173 174 174 175 176 177 179 179 181 182 184 185 186 187 187 187 188 189 190 192 193 193 193 193 194 196 198 198 197
221 198 184 179 175 174 175 177 180 182 182 183 187 185 180 172 167 165 166 170 175 176 175 171 172 176 180 182 182 180 176 169 172 178 184 183 179 176 174 172 172 173 175 177 177 178 179 179 180 181 182 184 185 186 185 184 184 185 187 189 191 192 193 194 196 198 199 198 196
224 200 185 180 178 176 177 178 180 182 184 187 189 187 181 171 165 164 167 172 176 176 174 171 173 176 179 182 183 180 175 163 167 176 185 185 180 176 174 172 171 171 173 177 178 178 178 179 179 180 180 182 183 183 182 179 180 181 183 186 189 192 193 195 196 198 199 199 197
229 204 186 181 179 179 179 179 182 184 186 188 191 189 184 173 166 166 171 176 178 176 174 174 176 177 179 181 181 177 170 156 163 175 186 186 178 174 172 172 170 170 173 176 176 176 177 177 177 177 176 177 179 178 177 175 176 178 181 184 187 190 193 195 196 198 199 200 199
231 208 189 180 179 179 180 181 184 187 188 189 191 190 187 177 170 171 176 183 180 177 174 176 178 179 179 180 177 172 164 154 162 174 182 181 173 170 168 169 170 174 177 176 173 172 171 170 170 170 170 171 173 173 173 173 174 176 180 183 186 190 193 196 198 199 200 200 199
231 209 190 179 178 179 182 184 187 188 190 189 190 190 187 179 173 175 181 186 181 176 174 175 179 180 179 177 172 165 158 155 166 176 179 173 167 163 161 161 167 172 172 167 162 160 159 159 161 162 163 165 167 169 171 172 174 178 182 185 188 191 195 198 200 201 201 200 197
242 213 190 178 178 180 183 186 189 190 190 190 189 188 185 179 176 180 185 186 179 175 173 173 177 178 177 171 162 155 152 158 176 184 180 164 151 146 147 152 154 153 149 140 138 139 142 145 151 155 158 160 162 165 168 171 176 181 185 188 191 194 197 200 202 202 201 199 195
272 238 199 179 179 182 185 189 191 191 190 189 188 186 182 178 181 186 188 184 176 172 170 170 173 173 168 159 149 145 148 165 181 182 170 147 135 133 136 140 138 134 129 126 131 133 135 137 142 148 154 158 160 163 167 173 180 185 188 191 193 196 199 201 202 202 201 199 195
285 268 233 196 187 186 188 190 192 191 190 190 191 187 181 178 186 191 189 182 173 168 166 166 167 163 153 144 138 140 148 166 168 159 144 132 130 131 132 132 131 129 129 132 135 136 137 137 139 143 150 157 160 164 169 176 182 185 189 193 196 199 201 203 202 200 199 197 195
278 268 249 222 203 192 188 190 191 191 191 193 193 188 181 182 191 192 189 180 170 164 162 160 155 147 135 129 131 137 146 154 146 137 130 128 130 132 132 130 128 127 132 138 140 140 140 140 141 144 148 155 161 167 173 179 183 188 194 200 204 206 205 203 200 197 195 195 194
269 260 245 227 208 194 186 188 190 191 193 196 193 187 184 189 193 191 186 175 166 160 153 147 137 126 118 117 126 136 143 141 135 131 129 131 136 141 143 137 119 111 121 139 143 143 142 139 137 134 135 139 149 154 150 130 99 72 52 30 3 327 285 239 207 197 195 192 191
264 257 246 227 206 189 182 188 191 193 194 196 190 187 188 194 194 189 181 170 159 149 138 127 120 118 119 122 131 138 139 134 132 135 140 146 146 137 109 79 70 70 88 119 126 123 115 106 96 87 78 71 69 68 65 60 57 55 50 44 38 36 36 34 24 17 15 38 180
260 257 249 230 202 184 182 191 195 194 193 193 188 188 191 195 192 186 175 159 144 131 121 118 118 119 122 127 134 137 138 139 143 139 126 99 82 69 61 54 48 57 76 88 91 89 85 81 79 76 73 70 69 68 67 66 63 60 56 50 44 42 42 41 36 32 30 29 28
259 257 252 236 206 188 188 196 197 195 193 191 190 193 195 193 186 175 158 139 127 120 118 118 121 124 128 135 137 128 108 80 77 80 80 75 70 65 62 58 56 69 83 89 88 87 86 85 83 82 80 79 78 76 74 71 66 62 57 53 49 46 44 43 41 39 39 40 43
257 255 251 240 219 203 198 202 200 196 192 192 194 196 193 182 169 154 138 124 117 114 114 117 120 114 102 90 86 83 78 71 67 69 75 82 81 76 69 62 59 70 84 94 94 93 91 90 87 85 83 81 79 77 74 71 68 63 59 56 52 50 49 48 46 45 44 46 50
254 251 246 236 224 214 208 205 200 196 193 194 196 190 177 150 132 117 104 91 85 81 78 79 85 82 77 72 72 75 79 82 81 80 79 79 77 75 71 65 61 66 78 92 95 95 94 92 90 88 86 83 81 79 77 74 71 67 64 60 56 52 50 50 49 49 49 50 54
252 247 241 231 222 215 210 205 199 196 194 193 184 159 121 98 87 81 77 76 75 73 71 70 73 76 78 79 79 80 80 80 77 76 76 77 78 77 75 71 65 62 69 85 92 95 96 95 94 92 89 86 84 82 80 77 74 71 67 64 59 55 52 51 50 50 51 53 58
253 244 236 226 219 214 209 203 198 196 191 179 143 110 95 90 88 86 85 84 82 80 79 78 78 78 78 77 74 73 74 77 76 75 74 76 78 79 78 74 67 61 63 75 86 91 94 95 95 94 92 89 88 85 83 80 77 74 70 67 63 59 56 54 52 51 51 53 57
258 244 233 223 216 211 207 201 197 190 172 133 109 100 96 93 89 87 86 85 84 83 81 79 78 78 78 77 74 70 69 71 73 73 72 72 76 78 79 75 67 60 58 65 77 84 89 93 94 94 94 93 92 89 87 84 81 77 73 70 66 63 59 57 55 53 53 53 56
263 248 235 223 214 208 203 199 191 170 135 109 104 100 97 93 89 86 85 86 87 86 84 82 80 79 79 78 74 69 65 64 67 70 70 69 71 75 77 75 67 61 57 60 69 76 82 86 89 91 94 95 95 93 90 87 84 81 77 74 70 66 62 61 58 56 55 55 57
266 250 239 226 216 207 199 194 173 140 117 108 104 99 94 91 89 86 84 84 87 87 86 85 83 81 80 79 75 70 66 62 63 65 67 67 67 69 72 74 68 62 58 58 65 71 77 81 84 88 91 94 94 94 92 91 88 85 82 79 76 71 66 63 61 60 58 57 58
271 252 241 231 219 207 193 174 142 123 114 109 104 99 96 93 92 90 87 85 85 86 87 87 85 83 81 79 77 74 70 65 63 63 65 65 64 65 67 70 67 63 59 58 63 68 73 77 81 84 88 91 92 93 93 93 90 87 84 81 79 76 71 66 64 63 61 59 59
293 259 242 232 218 200 164 128 119 115 111 107 104 101 98 96 94 92 90 88 87 87 86 86 84 82 80 79 78 76 74 69 65 63 63 64 63 62 63 65 65 62 59 57 60 65 69 73 77 81 85 89 90 92 93 93 91 88 85 83 82 80 77 72 68 65 63 61 60